Tracking 29892 objects as of 21-Nov-2024
HD Live streaming from Space Station
objects crossing your sky now

STARLINK-31808

Track STARLINK-31808 now!
10-day predictions
STARLINK-31808 is classified as:


NORAD ID: 59751
Int'l Code: 2024-090X
Perigee: 450.5 km
Apogee: 451.9 km
Inclination: 43.0 °
Period: 93.5 minutes
Semi major axis: 6822 km
RCS: Unknown
Launch date: May 13, 2024
Source: United States (US)
Launch site: AIR FORCE EASTERN TEST RANGE (AFETR)
Your satellite tracking list
Your tracking list is empty




NASA's NSSDC Master Catalog

Two Line Element Set (TLE):
1 59751U 24090X   24325.47487862  .00001860  00000-0  51779-4 0  9992
2 59751  43.0029 352.1299 0001066 256.7023 103.3715 15.40696904 30788
Source of the keplerian elements: AFSPC